sat.trackr.live / text

‹ back to catalog

STARLINK-11120 [DTC]

NORAD 60042 · 2024-112E

PAYLOAD ACTIVE UNKNOWN

§ Identity

Operator
Country
US
Launch date
2024-06-08
Launch site
AFWTR
Launch vehicle
Mass (kg)
RCS (m²)

Purposes: comms

External: N2YO · Heavens-Above · Gunter

§ Orbital elements

Epoch: 2026-05-24T23:47:21.325920Z

Period
91.74 min
Inclination
53.1576°
Eccentricity
0.0001113
Mean motion
15.69715517 rev/d
Perigee alt
359.0 km
Apogee alt
360.5 km
Semi-major
6,737.8 km
B*
2.6483e-5
RAAN
250.2321°
Arg perigee
77.8089°
Mean anomaly
282.3054°
Rev number
11,296

§ Raw data

STARLINK-11120 [DTC]1 60042U 24112E   26144.99121905  .00002621  00000+0  26483-4 0  99922 60042  53.1576 250.2321 0001113  77.8089 282.3054 15.69715517112961

JSON: /api/v1/satellites/60042 · /tle

For live sub-satellite position, see the globe view (requires WebGL).

§ Visibility from observer

Set your observer location to see the next 7 days of passes ≥ 10°. The values pass through the URL so the page stays shareable.

No JS? Fill the form by hand. The geolocation button needs JavaScript.